DW4369 Weather Reports


Display with metric or nautical units.
time (UTC)temp
F
wind
direction
speed
MPH
gust
MPH
rain 1hr
in
rain 24hr
in
rain mn
in
humidity
%
barometer
mb
20260905234518 86 32 1.0 4.0 0.00 0.00 0.00 79 1011.4
20260905233032 87 51 2.0 6.0 0.00 0.00 0.00 77 1011.4
20260905231555 88 339 1.0 8.0 0.00 0.00 0.00 75 1011.3
20260905230030 88 16 2.0 6.0 0.00 0.00 0.00 75 1011.2
20260905224520 89 39 1.0 9.0 0.00 0.00 0.00 76 1011.1
20260905223033 89 26 2.0 7.0 0.00 0.00 0.00 73 1011.1
20260905221517 90 305 1.0 5.0 0.00 0.00 0.00 75 1011.1
20260905220045 90 34 2.0 9.0 0.00 0.00 0.00 74 1011.1
20260905214534 90 34 2.0 9.0 0.00 0.00 0.00 75 1011.0
20260905213022 90 40 1.0 4.0 0.00 0.00 0.00 74 1011.1
20260905211532 90 297 1.0 3.0 0.00 0.00 0.00 74 1011.2
20260905210014 91 303 0.0 5.0 0.00 0.00 0.00 75 1011.3
20260905204528 91 41 2.0 5.0 0.00 0.00 0.00 72 1011.4
20260905203029 91 64 4.0 9.0 0.00 0.00 0.00 70 1011.4
20260905201517 90 124 1.0 6.0 0.00 0.00 0.00 68 1011.3
20260905200026 91 22 3.0 11.0 0.00 0.00 0.00 70 1011.4
20260905194517 93 309 1.0 6.0 0.00 0.00 0.00 69 1011.4
20260905193031 92 285 1.0 5.0 0.00 0.00 0.00 68 1011.5
20260905191541 93 349 0.0 5.0 0.00 0.00 0.00 70 1011.7
20260905190031 92 320 1.0 6.0 0.00 0.00 0.00 68 1011.8
20260905184523 93 277 1.0 5.0 0.00 0.00 0.00 69 1012.0
20260905183032 93 294 1.0 5.0 0.00 0.00 0.00 67 1012.0
20260905181527 93 119 2.0 5.0 0.00 0.00 0.00 67 1012.1
20260905180038 93 274 1.0 4.0 0.00 0.00 0.00 68 1012.3
20260905174518 92 269 0.0 2.0 0.00 0.00 0.00 67 1012.4
20260905173029 92 271 1.0 3.0 0.00 0.00 0.00 67 1012.4
20260905171558 92 295 1.0 5.0 0.00 0.00 0.00 69 1012.4
20260905170022 92 358 2.0 6.0 0.00 0.00 0.00 67 1012.5
20260905164527 92 277 1.0 5.0 0.00 0.00 0.00 70 1012.7
20260905163022 92 210 1.0 4.0 0.00 0.00 0.00 68 1012.6
20260905161550 92 201 1.0 3.0 0.00 0.00 0.00 69 1012.7
20260905160041 92 201 0.0 0.0 0.00 0.00 0.00 72 1012.7
20260905154525 92 202 0.0 0.0 0.00 0.00 0.00 69 1012.6
20260905153018 91 201 0.0 0.0 0.00 0.00 0.00 71 1012.7
20260905151529 90 201 0.0 0.0 0.00 0.00 0.00 71 1012.6
20260905150024 91 201 0.0 0.0 0.00 0.00 0.00 73 1012.5
20260905144527 91 201 0.0 0.0 0.00 0.00 0.00 74 1012.3
20260905143031 89 201 0.0 0.0 0.00 0.00 0.00 76 1012.5
20260905141537 87 201 0.0 0.0 0.00 0.00 0.00 79 1012.4
20260905140016 85 201 0.0 0.0 0.00 0.00 0.00 80 1012.7
20260905134516 85 201 0.0 0.0 0.00 0.00 0.00 81 1012.6
20260905133045 83 201 0.0 0.0 0.00 0.00 0.00 85 1012.5
20260905131553 81 201 0.0 0.0 0.00 0.00 0.00 88 1012.5
20260905130023 80 201 0.0 0.0 0.00 0.00 0.00 88 1012.3
20260905124532 78 201 0.0 0.0 0.00 0.00 0.00 88 1012.3
20260905123025 77 201 0.0 0.0 0.00 0.00 0.00 89 1012.2
20260905121554 76 201 0.0 0.0 0.00 0.00 0.00 89 1012.1
20260905120027 74 201 0.0 0.0 0.00 0.00 0.00 88 1012.0
20260905114521 74 201 0.0 0.0 0.00 0.00 0.00 88 1012.0
20260905113026 74 202 0.0 0.0 0.00 0.00 0.00 87 1011.9
20260905111528 74 201 0.0 0.0 0.00 0.00 0.00 88 1011.8
20260905110030 74 201 0.0 0.0 0.00 0.00 0.00 88 1011.9
20260905104517 75 201 0.0 0.0 0.00 0.00 0.00 89 1011.9
20260905103029 76 201 0.0 0.0 0.00 0.00 0.00 89 1012.0
20260905101530 76 201 0.0 0.0 0.00 0.00 0.00 89 1011.9
20260905100021 77 201 0.0 0.0 0.00 0.00 0.00 89 1011.8
20260905094523 76 201 0.0 0.0 0.00 0.00 0.00 89 1011.7
20260905093032 76 201 0.0 0.0 0.00 0.00 0.00 89 1011.6
20260905091515 76 201 0.0 0.0 0.00 0.00 0.00 89 1011.7
20260905090029 77 201 0.0 0.0 0.00 0.00 0.00 89 1011.6
20260905084527 78 201 0.0 0.0 0.00 0.00 0.00 89 1011.6
20260905083019 78 201 0.0 0.0 0.00 0.00 0.00 89 1011.7
20260905081528 77 201 0.0 0.0 0.00 0.00 0.00 89 1011.7
20260905080021 76 201 0.0 0.0 0.00 0.00 0.00 86 1011.8
20260905074513 76 201 0.0 0.0 0.00 0.00 0.00 84 1011.9
20260905073047 76 201 0.0 0.0 0.00 0.00 0.00 84 1011.9
20260905071530 76 201 0.0 0.0 0.00 0.00 0.00 84 1012.1
20260905070041 76 201 0.0 0.0 0.00 0.00 0.00 84 1012.2
20260905064610 76 201 0.0 0.0 0.00 0.00 0.00 85 1012.2
20260905063016 76 201 0.0 0.0 0.00 0.00 0.00 86 1012.2
20260905061525 76 201 0.0 0.0 0.00 0.00 0.00 87 1012.3
20260905060024 76 201 0.0 0.0 0.00 0.00 0.00 87 1012.3
20260905054538 76 201 0.0 0.0 0.00 0.00 0.00 88 1012.3
20260905053017 77 201 0.0 0.0 0.00 0.00 0.00 88 1012.3
20260905051525 77 201 0.0 0.0 0.00 0.00 0.00 88 1012.3
20260905050051 78 201 0.0 0.0 0.00 0.00 0.00 89 1012.4
20260905044535 78 201 0.0 0.0 0.00 0.00 0.00 89 1012.3
20260905043017 78 201 0.0 0.0 0.00 0.00 0.00 89 1012.3
20260905041522 78 201 0.0 0.0 0.00 0.00 0.00 89 1012.3
20260905040033 79 202 0.0 0.0 0.00 0.00 0.00 89 1012.4
20260905034532 79 201 0.0 0.0 0.00 0.00 0.00 89 1012.4
20260905033025 79 201 0.0 0.0 0.00 0.00 0.00 89 1012.5
20260905031528 79 201 0.0 0.0 0.00 0.00 0.00 89 1012.3
20260905030040 80 201 0.0 0.0 0.00 0.00 0.00 89 1012.4
20260905024525 80 201 0.0 0.0 0.00 0.00 0.00 89 1012.4
20260905023029 80 201 0.0 0.0 0.00 0.00 0.00 88 1012.2
20260905021514 81 201 0.0 0.0 0.00 0.00 0.00 87 1012.1
20260905020040 82 201 0.0 0.0 0.00 0.00 0.00 87 1011.8
20260905014516 82 201 0.0 0.0 0.00 0.00 0.00 85 1011.6
20260905013023 83 201 0.0 0.0 0.00 0.00 0.00 83 1011.7
20260905011552 84 201 0.0 0.0 0.00 0.00 0.00 83 1011.5
20260905004524 86 201 0.0 0.0 0.00 0.00 0.00 80 1011.4
20260905003019 87 201 0.0 0.0 0.00 0.00 0.00 77 1011.3
20260905001528 88 201 0.0 0.0 0.00 0.00 0.00 77 1011.3
20260905000039 89 201 0.0 0.0 0.00 0.00 0.00 75 1011.2